Starlink 32821

operational
NORAD ID: 63078 Int'l Des: 2025-037 Owner: SPXS Country: US Constellation: starlink
LEOCIRCULAR

Starlink 32821について

説明を読み込み中...

リアルタイム位置

3D地球を読み込み中...

次回通過

高度履歴

Altitude vs Time

uPlot chart will show altitude changes over time

軌道要素

1 63078U 25037B 25351.86695788 .00004870 00000-0 41556-3 0 9997
2 63078 69.9989 200.8413 0002908 266.0181 94.0646 14.98339109 46339
Epoch: Dec 17, 2025 • Age: 13 hours

現在のステータス

高度 589.3 km
速度 7.57 km/s
衛星直下点 -50.01°S, 54.03°W
打ち上げ日 Feb 23, 2025
運用期間 0.8 years
タイプ internet

技術仕様

分類 Payload
質量 730.00 kg
乾燥質量 700.00 kg
総質量 730.00 kg
長さ 0.30 m
直径 4.10 m
スパン 29.00 m
形状 Box + pan
製造者 SPXS
バスタイプ Starlink V2M
フェーズステータス In Orbit
所有者/国 SPXS/US

大規模コンステレーション

Loading constellations...